PTVSO SBPK-SBCT

Flight info

Callsign PTVSO
Flight time N/A
Altitude 11000
Route RODUP DCT NIGBI DCT VUGUP
Aircraft PA34/L-SDFGRY/S

Departure

Time 2026-05-06 23:43
Airport João Simões Lopes Neto International Airport (SBPK)

Arrival

Time N/A
Airport Curitiba-Afonso Pena International Airport (SBCT)
Time Latitude Longitude Altitude Speed Heading
2026-05-06 23:31 -31.71604 -52.32932 59 ft 0 kts 320°
2026-05-06 23:40 -31.71606 -52.32968 59 ft 12 kts 233°
2026-05-06 23:40 -31.71686 -52.33047 60 ft 19 kts 191°
2026-05-06 23:40 -31.71802 -52.32962 58 ft 19 kts 143°
2026-05-06 23:41 -31.71898 -52.33045 58 ft 30 kts 231°
2026-05-06 23:41 -31.72091 -52.33319 60 ft 52 kts 233°
2026-05-06 23:41 -31.72148 -52.33423 60 ft 6 kts 22°
2026-05-06 23:41 -31.72115 -52.33365 57 ft 0 kts 50°
2026-05-06 23:42 -31.71919 -52.33076 74 ft 79 kts 53°
2026-05-06 23:43 -31.71492 -52.32454 258 ft 112 kts 52°
2026-05-06 23:43 -31.70974 -52.31787 703 ft 109 kts 36°
2026-05-06 23:43 -31.70269 -52.31438 976 ft 112 kts 13°
2026-05-06 23:43 -31.69538 -52.31412 1370 ft 104 kts 352°
2026-05-06 23:44 -31.68806 -52.31563 1614 ft 109 kts 351°
2026-05-06 23:44 -31.68055 -52.31704 1847 ft 108 kts 351°
2026-05-06 23:44 -31.67322 -52.31828 2083 ft 107 kts 351°
2026-05-06 23:44 -31.66587 -52.31947 2323 ft 105 kts 350°
2026-05-06 23:45 -31.65888 -52.32058 2558 ft 98 kts 349°
2026-05-06 23:45 -31.65237 -52.32159 2779 ft 90 kts 348°
2026-05-06 23:45 -31.64647 -52.32250 3004 ft 83 kts 347°
2026-05-06 23:45 -31.64075 -52.32341 3170 ft 86 kts 347°
2026-05-06 23:46 -31.63461 -52.32438 3293 ft 92 kts 347°
2026-05-06 23:46 -31.62819 -52.32538 3422 ft 96 kts 347°
2026-05-06 23:46 -31.62142 -52.32644 3546 ft 99 kts 347°
2026-05-06 23:46 -31.61454 -52.32751 3675 ft 100 kts 346°
2026-05-06 23:47 -31.60756 -52.32859 3801 ft 102 kts 346°
2026-05-06 23:47 -31.60061 -52.32968 3926 ft 103 kts 346°
2026-05-06 23:47 -31.59334 -52.33083 4053 ft 106 kts 347°
2026-05-06 23:47 -31.58602 -52.33195 4177 ft 106 kts 346°
2026-05-06 23:48 -31.57868 -52.33309 4300 ft 106 kts 346°
2026-05-06 23:48 -31.57140 -52.33422 4427 ft 107 kts 346°
2026-05-06 23:48 -31.56397 -52.33538 4550 ft 108 kts 345°
2026-05-06 23:48 -31.55654 -52.33654 4672 ft 107 kts 344°
2026-05-06 23:49 -31.54938 -52.33763 4795 ft 104 kts 343°
2026-05-06 23:49 -31.54225 -52.33875 4907 ft 103 kts 343°
2026-05-06 23:49 -31.53516 -52.33985 5024 ft 102 kts 343°
2026-05-06 23:49 -31.52814 -52.34095 5148 ft 103 kts 343°
2026-05-06 23:50 -31.52100 -52.34206 5267 ft 104 kts 343°
2026-05-06 23:50 -31.50659 -52.34430 5510 ft 105 kts 343°
2026-05-06 23:50 -31.49928 -52.34543 5632 ft 105 kts 343°
2026-05-06 23:51 -31.49200 -52.34656 5756 ft 105 kts 343°
2026-05-06 23:51 -31.48482 -52.34767 5882 ft 105 kts 343°
2026-05-06 23:51 -31.47749 -52.34882 6004 ft 106 kts 343°
2026-05-06 23:51 -31.47023 -52.34994 6133 ft 105 kts 342°
2026-05-06 23:52 -31.46310 -52.35104 6253 ft 102 kts 342°
2026-05-06 23:52 -31.45613 -52.35212 6369 ft 102 kts 342°
2026-05-06 23:52 -31.44899 -52.35324 6488 ft 104 kts 342°
2026-05-06 23:52 -31.44184 -52.35434 6602 ft 103 kts 342°
2026-05-06 23:53 -31.43483 -52.35542 6714 ft 100 kts 342°
2026-05-06 23:53 -31.42783 -52.35650 6828 ft 101 kts 343°
2026-05-06 23:53 -31.42091 -52.35760 6948 ft 102 kts 342°
2026-05-06 23:53 -31.41391 -52.35865 7064 ft 100 kts 342°
2026-05-06 23:54 -31.40710 -52.35973 7172 ft 98 kts 343°
2026-05-06 23:54 -31.40033 -52.36078 7293 ft 101 kts 343°
2026-05-06 23:54 -31.39332 -52.36186 7413 ft 100 kts 343°
2026-05-06 23:54 -31.38649 -52.36292 7533 ft 99 kts 343°
2026-05-06 23:55 -31.37973 -52.36398 7655 ft 100 kts 342°
2026-05-06 23:55 -31.37284 -52.36504 7765 ft 98 kts 343°
2026-05-06 23:55 -31.36621 -52.36606 7880 ft 95 kts 343°
2026-05-06 23:55 -31.35961 -52.36709 8007 ft 97 kts 342°
2026-05-06 23:56 -31.35292 -52.36813 8124 ft 99 kts 343°
2026-05-06 23:56 -31.34608 -52.36919 8242 ft 99 kts 343°
2026-05-06 23:56 -31.33945 -52.37021 8370 ft 94 kts 343°
2026-05-06 23:56 -31.33286 -52.37123 8491 ft 98 kts 343°
2026-05-06 23:57 -31.32600 -52.37231 8622 ft 100 kts 343°
2026-05-06 23:57 -31.31902 -52.37339 8753 ft 102 kts 343°
2026-05-06 23:57 -31.31195 -52.37448 8882 ft 103 kts 343°
2026-05-06 23:57 -31.30488 -52.37556 9008 ft 104 kts 344°
2026-05-06 23:58 -31.29760 -52.37670 9137 ft 105 kts 344°
2026-05-06 23:58 -31.29030 -52.37783 9271 ft 106 kts 344°
2026-05-06 23:58 -31.28308 -52.37894 9400 ft 107 kts 344°
2026-05-06 23:58 -31.27558 -52.38009 9526 ft 108 kts 345°
2026-05-06 23:59 -31.26814 -52.38124 9656 ft 107 kts 345°
2026-05-06 23:59 -31.26083 -52.38235 9786 ft 104 kts 345°
2026-05-06 23:59 -31.25379 -52.38344 9899 ft 103 kts 344°
2026-05-06 23:59 -31.24665 -52.38456 10012 ft 104 kts 344°
2026-05-07 00:00 -31.23947 -52.38565 10126 ft 104 kts 343°
2026-05-07 00:00 -31.23238 -52.38676 10236 ft 104 kts 344°
2026-05-07 00:00 -31.22513 -52.38787 10350 ft 106 kts 344°
2026-05-07 00:00 -31.22030 -52.38861 10433 ft 106 kts 343°
2026-05-07 00:01 -31.21047 -52.39013 10579 ft 106 kts 343°
2026-05-07 00:01 -31.20322 -52.39124 10708 ft 106 kts 343°
2026-05-07 00:01 -31.19591 -52.39237 10819 ft 106 kts 343°
2026-05-07 00:01 -31.18864 -52.39348 10933 ft 105 kts 343°
2026-05-07 00:02 -31.18142 -52.39460 11047 ft 103 kts 343°
2026-05-07 00:02 -31.17440 -52.39567 11134 ft 105 kts 343°
2026-05-07 00:02 -31.16644 -52.39697 11027 ft 126 kts 345°
2026-05-07 00:02 -31.15743 -52.39835 11016 ft 133 kts 345°
2026-05-07 00:03 -31.14814 -52.39976 11028 ft 137 kts 345°
2026-05-07 00:03 -31.13856 -52.40122 11022 ft 139 kts 345°
2026-05-07 00:03 -31.12905 -52.40268 11021 ft 140 kts 345°
2026-05-07 00:03 -31.11926 -52.40422 11017 ft 143 kts 345°
2026-05-07 00:04 -31.10936 -52.40576 11011 ft 142 kts 345°
2026-05-07 00:04 -31.09963 -52.40724 11039 ft 142 kts 345°
2026-05-07 00:04 -31.08947 -52.40884 10949 ft 150 kts 346°
2026-05-07 00:04 -31.07918 -52.41041 10939 ft 149 kts 346°
2026-05-07 00:05 -31.06899 -52.41196 10941 ft 146 kts 346°
2026-05-07 00:05 -31.05893 -52.41351 10941 ft 147 kts 346°
2026-05-07 00:05 -31.04872 -52.41508 10942 ft 147 kts 346°
2026-05-07 00:05 -31.03853 -52.41665 10937 ft 147 kts 346°
2026-05-07 00:06 -31.02855 -52.41818 10938 ft 147 kts 346°
2026-05-07 00:06 -31.01835 -52.41975 10941 ft 147 kts 346°
2026-05-07 00:06 -31.00804 -52.42133 10943 ft 150 kts 346°
2026-05-07 00:06 -30.99771 -52.42293 10948 ft 152 kts 346°
2026-05-07 00:07 -30.98719 -52.42455 10947 ft 153 kts 346°
2026-05-07 00:07 -30.97666 -52.42617 10945 ft 154 kts 346°
2026-05-07 00:07 -30.96602 -52.42780 10944 ft 154 kts 346°
2026-05-07 00:07 -30.95536 -52.42943 10944 ft 155 kts 346°
2026-05-07 00:08 -30.94465 -52.43108 10943 ft 154 kts 346°
2026-05-07 00:08 -30.93413 -52.43280 10946 ft 153 kts 343°
2026-05-07 00:08 -30.92390 -52.43592 10929 ft 154 kts 348°
2026-05-07 00:08 -30.91327 -52.43174 10936 ft 169 kts 22°
2026-05-07 00:09 -30.90292 -52.42542 10939 ft 167 kts 14°
2026-05-07 00:09 -30.89227 -52.42038 10939 ft 168 kts 14°
2026-05-07 00:09 -30.88175 -52.41409 10940 ft 171 kts 19°
2026-05-07 00:09 -30.87124 -52.40751 10941 ft 171 kts 19°
2026-05-07 00:10 -30.86069 -52.40109 10941 ft 172 kts 18°
2026-05-07 00:10 -30.85019 -52.39478 10942 ft 171 kts 18°
2026-05-07 00:10 -30.83956 -52.38839 10942 ft 171 kts 18°
2026-05-07 00:10 -30.82897 -52.38203 10941 ft 171 kts 18°
2026-05-07 00:11 -30.81848 -52.37572 10942 ft 171 kts 18°
2026-05-07 00:11 -30.80797 -52.36940 10943 ft 171 kts 18°
2026-05-07 00:11 -30.79739 -52.36305 10943 ft 170 kts 18°
2026-05-07 00:11 -30.78682 -52.35669 10945 ft 171 kts 18°
2026-05-07 00:12 -30.77623 -52.35034 10945 ft 171 kts 18°
2026-05-07 00:12 -30.76582 -52.34408 10941 ft 170 kts 18°
2026-05-07 00:12 -30.75526 -52.33775 10943 ft 170 kts 18°
2026-05-07 00:12 -30.74477 -52.33145 10946 ft 170 kts 18°
2026-05-07 00:13 -30.73425 -52.32516 10944 ft 170 kts 19°
2026-05-07 00:13 -30.72387 -52.31891 10942 ft 169 kts 18°
2026-05-07 00:13 -30.71692 -52.31474 10941 ft 169 kts 19°
2026-05-07 00:13 -30.70642 -52.30846 10950 ft 170 kts 19°
2026-05-07 00:14 -30.69226 -52.29998 10949 ft 172 kts 19°
2026-05-07 00:14 -30.68520 -52.29573 10946 ft 172 kts 19°
2026-05-07 00:14 -30.67458 -52.28936 10948 ft 171 kts 18°
2026-05-07 00:14 -30.66397 -52.28302 10947 ft 171 kts 18°
2026-05-07 00:15 -30.65344 -52.27671 10948 ft 170 kts 19°
2026-05-07 00:15 -30.64303 -52.27047 10948 ft 170 kts 19°
2026-05-07 00:15 -30.63250 -52.26418 10943 ft 169 kts 19°
2026-05-07 00:15 -30.61863 -52.25587 10947 ft 169 kts 19°
2026-05-07 00:16 -30.61168 -52.25171 10948 ft 169 kts 19°
2026-05-07 00:16 -30.60113 -52.24541 10951 ft 170 kts 19°
2026-05-07 00:16 -30.59073 -52.23919 10950 ft 170 kts 19°
2026-05-07 00:16 -30.58018 -52.23288 10948 ft 169 kts 19°
2026-05-07 00:17 -30.56971 -52.22662 10951 ft 168 kts 19°
2026-05-07 00:17 -30.55944 -52.22047 10954 ft 168 kts 19°
2026-05-07 00:17 -30.54897 -52.21424 10949 ft 168 kts 19°
2026-05-07 00:17 -30.53854 -52.20801 10951 ft 168 kts 19°
2026-05-07 00:18 -30.52823 -52.20185 10951 ft 168 kts 19°
2026-05-07 00:18 -30.51780 -52.19563 10949 ft 168 kts 19°
2026-05-07 00:18 -30.50737 -52.18939 10948 ft 168 kts 19°
2026-05-07 00:18 -30.49708 -52.18326 10951 ft 169 kts 19°
2026-05-07 00:19 -30.48660 -52.17701 10947 ft 168 kts 19°
2026-05-07 00:19 -30.47621 -52.17081 10948 ft 167 kts 19°
2026-05-07 00:19 -30.46584 -52.16463 10951 ft 167 kts 19°
2026-05-07 00:19 -30.45557 -52.15851 10951 ft 168 kts 19°
2026-05-07 00:20 -30.44513 -52.15229 10948 ft 168 kts 19°
2026-05-07 00:20 -30.43484 -52.14616 10952 ft 168 kts 19°
2026-05-07 00:20 -30.42439 -52.13993 10953 ft 168 kts 19°
2026-05-07 00:20 -30.41393 -52.13371 10952 ft 168 kts 19°
2026-05-07 00:21 -30.40366 -52.12759 10955 ft 167 kts 19°
2026-05-07 00:21 -30.39326 -52.12139 10957 ft 168 kts 19°
2026-05-07 00:21 -30.38281 -52.11519 10954 ft 168 kts 19°
2026-05-07 00:21 -30.37255 -52.10908 10955 ft 167 kts 19°
2026-05-07 00:22 -30.36213 -52.10288 10951 ft 167 kts 19°
2026-05-07 00:22 -30.35185 -52.09677 10952 ft 168 kts 19°
2026-05-07 00:22 -30.34147 -52.09060 10948 ft 167 kts 19°
2026-05-07 00:22 -30.33106 -52.08440 10954 ft 167 kts 19°
2026-05-07 00:23 -30.32077 -52.07830 10952 ft 168 kts 19°
2026-05-07 00:23 -30.31034 -52.07210 10948 ft 168 kts 20°
2026-05-07 00:23 -30.29993 -52.06592 10952 ft 168 kts 19°
2026-05-07 00:23 -30.28962 -52.05980 10952 ft 168 kts 19°
2026-05-07 00:24 -30.27916 -52.05359 10952 ft 168 kts 19°
2026-05-07 00:24 -30.26889 -52.04748 10953 ft 168 kts 19°
2026-05-07 00:24 -30.25844 -52.04129 10953 ft 168 kts 19°
2026-05-07 00:24 -30.24809 -52.03515 10954 ft 168 kts 19°
2026-05-07 00:25 -30.23767 -52.02897 10950 ft 168 kts 20°
2026-05-07 00:25 -30.22725 -52.02279 10956 ft 168 kts 20°
2026-05-07 00:25 -30.21687 -52.01664 10952 ft 169 kts 20°
2026-05-07 00:25 -30.20638 -52.01042 10955 ft 169 kts 20°
2026-05-07 00:26 -30.19599 -52.00427 10952 ft 169 kts 20°
2026-05-07 00:26 -30.18548 -51.99805 10952 ft 169 kts 20°
2026-05-07 00:26 -30.17499 -51.99183 10951 ft 169 kts 20°
2026-05-07 00:26 -30.16455 -51.98564 10953 ft 169 kts 20°
2026-05-07 00:27 -30.15422 -51.97953 10951 ft 169 kts 20°
2026-05-07 00:27 -30.14368 -51.97330 10948 ft 169 kts 20°
2026-05-07 00:27 -30.13329 -51.96715 10949 ft 170 kts 20°
2026-05-07 00:27 -30.12274 -51.96091 10949 ft 170 kts 20°
2026-05-07 00:28 -30.11217 -51.95466 10948 ft 170 kts 20°
2026-05-07 00:28 -30.10175 -51.94849 10947 ft 170 kts 20°
2026-05-07 00:28 -30.09128 -51.94231 10949 ft 169 kts 20°
2026-05-07 00:28 -30.08089 -51.93617 10948 ft 169 kts 20°
2026-05-07 00:29 -30.07040 -51.92997 10944 ft 169 kts 20°
2026-05-07 00:29 -30.05989 -51.92376 10942 ft 169 kts 20°
2026-05-07 00:30 -30.02843 -51.90519 10946 ft 169 kts 20°
2026-05-07 00:30 -30.01804 -51.89906 10948 ft 169 kts 20°
2026-05-07 00:30 -30.00754 -51.89287 10946 ft 170 kts 20°
2026-05-07 00:30 -29.99698 -51.88664 10950 ft 170 kts 20°
2026-05-07 00:31 -29.98641 -51.88040 10950 ft 170 kts 20°
2026-05-07 00:31 -29.97600 -51.87427 10946 ft 170 kts 20°
2026-05-07 00:31 -29.96542 -51.86803 10947 ft 170 kts 21°
2026-05-07 00:31 -29.95482 -51.86178 10942 ft 170 kts 20°
2026-05-07 00:32 -29.94439 -51.85564 10948 ft 170 kts 21°
2026-05-07 00:32 -29.93381 -51.84941 10948 ft 170 kts 21°
2026-05-07 00:32 -29.92326 -51.84320 10946 ft 171 kts 21°
2026-05-07 00:32 -29.91263 -51.83694 10949 ft 171 kts 21°
2026-05-07 00:33 -29.90217 -51.83078 10946 ft 171 kts 21°
2026-05-07 00:33 -29.89151 -51.82451 10949 ft 171 kts 21°
2026-05-07 00:33 -29.88089 -51.81826 10949 ft 171 kts 21°
2026-05-07 00:33 -29.87039 -51.81209 10946 ft 171 kts 21°
2026-05-07 00:34 -29.85976 -51.80584 10948 ft 171 kts 21°
2026-05-07 00:34 -29.84912 -51.79958 10944 ft 171 kts 21°
2026-05-07 00:34 -29.83851 -51.79335 10946 ft 171 kts 21°
2026-05-07 00:34 -29.82801 -51.78717 10947 ft 171 kts 21°
2026-05-07 00:35 -29.81737 -51.78093 10949 ft 171 kts 21°
2026-05-07 00:35 -29.80686 -51.77475 10951 ft 171 kts 21°
2026-05-07 00:35 -29.79624 -51.76852 10951 ft 171 kts 21°
2026-05-07 00:35 -29.78565 -51.76230 10950 ft 171 kts 21°
2026-05-07 00:36 -29.77500 -51.75605 10952 ft 171 kts 21°
2026-05-07 00:36 -29.76450 -51.74989 10951 ft 171 kts 21°
2026-05-07 00:36 -29.75381 -51.74363 10950 ft 171 kts 21°
2026-05-07 00:36 -29.74316 -51.73738 10951 ft 171 kts 21°
2026-05-07 00:37 -29.73263 -51.73120 10955 ft 172 kts 21°
2026-05-07 00:37 -29.72194 -51.72494 10952 ft 172 kts 21°
2026-05-07 00:37 -29.71143 -51.71878 10948 ft 171 kts 21°
2026-05-07 00:37 -29.70074 -51.71252 10954 ft 171 kts 21°
2026-05-07 00:38 -29.69010 -51.70628 10957 ft 172 kts 21°
2026-05-07 00:38 -29.67957 -51.70011 10965 ft 171 kts 21°
2026-05-07 00:38 -29.66886 -51.69385 10962 ft 172 kts 21°
2026-05-07 00:38 -29.65819 -51.68761 10964 ft 172 kts 21°
2026-05-07 00:39 -29.64766 -51.68145 10964 ft 172 kts 21°
2026-05-07 00:39 -29.63696 -51.67518 10968 ft 172 kts 21°
2026-05-07 00:39 -29.62627 -51.66893 10969 ft 172 kts 21°
2026-05-07 00:39 -29.61559 -51.66269 10971 ft 172 kts 21°
2026-05-07 00:40 -29.60506 -51.65653 10968 ft 172 kts 21°
2026-05-07 00:40 -29.59433 -51.65026 10973 ft 172 kts 21°
2026-05-07 00:40 -29.58363 -51.64400 10971 ft 172 kts 21°
2026-05-07 00:40 -29.57308 -51.63784 10970 ft 172 kts 21°
2026-05-07 00:41 -29.56239 -51.63160 10972 ft 172 kts 21°
2026-05-07 00:41 -29.55175 -51.62539 10973 ft 172 kts 21°
2026-05-07 00:41 -29.54103 -51.61912 10980 ft 172 kts 21°
2026-05-07 00:41 -29.53039 -51.61291 10976 ft 172 kts 21°
2026-05-07 00:42 -29.51971 -51.60669 10977 ft 172 kts 21°
2026-05-07 00:42 -29.50900 -51.60044 10980 ft 172 kts 21°
2026-05-07 00:42 -29.49841 -51.59426 10981 ft 172 kts 21°
2026-05-07 00:42 -29.48773 -51.58803 10978 ft 172 kts 21°
2026-05-07 00:43 -29.47698 -51.58176 10980 ft 171 kts 21°
2026-05-07 00:43 -29.46646 -51.57563 10983 ft 171 kts 21°
2026-05-07 00:43 -29.45575 -51.56940 10985 ft 172 kts 21°
2026-05-07 00:43 -29.44520 -51.56325 10977 ft 171 kts 21°
2026-05-07 00:44 -29.43447 -51.55700 10987 ft 172 kts 21°
2026-05-07 00:44 -29.42393 -51.55086 10986 ft 172 kts 21°
2026-05-07 00:44 -29.41323 -51.54464 10988 ft 171 kts 22°
2026-05-07 00:44 -29.40257 -51.53843 10992 ft 171 kts 21°
2026-05-07 00:45 -29.39200 -51.53228 10985 ft 172 kts 21°
2026-05-07 00:45 -29.38129 -51.52605 10993 ft 172 kts 21°
2026-05-07 00:45 -29.37064 -51.51985 10994 ft 171 kts 21°
2026-05-07 00:45 -29.36010 -51.51373 10996 ft 171 kts 21°
2026-05-07 00:46 -29.34945 -51.50753 10998 ft 170 kts 21°
2026-05-07 00:46 -29.33900 -51.50147 11000 ft 170 kts 21°
2026-05-07 00:46 -29.32837 -51.49529 11002 ft 171 kts 21°
2026-05-07 00:46 -29.31768 -51.48908 11000 ft 171 kts 21°
2026-05-07 00:47 -29.30718 -51.48298 11003 ft 171 kts 21°
2026-05-07 00:47 -29.29651 -51.47679 11005 ft 172 kts 21°
2026-05-07 00:47 -29.28585 -51.47060 11007 ft 171 kts 22°
2026-05-07 00:47 -29.27522 -51.46442 11006 ft 171 kts 21°
2026-05-07 00:48 -29.26470 -51.45833 11009 ft 170 kts 21°
2026-05-07 00:48 -29.25413 -51.45219 11009 ft 170 kts 21°
2026-05-07 00:48 -29.24368 -51.44614 11014 ft 170 kts 21°
2026-05-07 00:48 -29.23309 -51.44000 11015 ft 171 kts 21°
2026-05-07 00:49 -29.22240 -51.43380 11018 ft 171 kts 21°
2026-05-07 00:49 -29.21186 -51.42769 11018 ft 172 kts 21°
2026-05-07 00:49 -29.20126 -51.42155 11024 ft 171 kts 21°
2026-05-07 00:49 -29.19053 -51.41533 11020 ft 172 kts 21°
2026-05-07 00:50 -29.18001 -51.40925 11026 ft 172 kts 21°
2026-05-07 00:50 -29.16930 -51.40304 11024 ft 172 kts 22°
2026-05-07 00:50 -29.15861 -51.39685 11029 ft 172 kts 21°
2026-05-07 00:50 -29.14793 -51.39068 11027 ft 172 kts 21°
2026-05-07 00:51 -29.13719 -51.38446 11027 ft 172 kts 22°
2026-05-07 00:51 -29.12669 -51.37838 11019 ft 170 kts 21°
2026-05-07 00:51 -29.11613 -51.37228 11021 ft 169 kts 21°
2026-05-07 00:51 -29.10573 -51.36625 11030 ft 166 kts 21°
2026-05-07 00:52 -29.09539 -51.36029 11035 ft 169 kts 21°
2026-05-07 00:52 -29.08481 -51.35418 11044 ft 171 kts 22°
2026-05-07 00:52 -29.07429 -51.34810 11043 ft 171 kts 22°
2026-05-07 00:52 -29.06371 -51.34197 11048 ft 170 kts 21°
2026-05-07 00:53 -29.05309 -51.33585 11044 ft 170 kts 21°
2026-05-07 00:53 -29.04255 -51.32975 11048 ft 170 kts 22°
2026-05-07 00:53 -29.03207 -51.32370 11050 ft 171 kts 21°
2026-05-07 00:53 -29.02138 -51.31756 11048 ft 171 kts 22°
2026-05-07 00:54 -29.01071 -51.31140 11055 ft 172 kts 22°
2026-05-07 00:54 -29.00005 -51.30523 11052 ft 172 kts 22°
2026-05-07 00:54 -28.98946 -51.29914 11057 ft 172 kts 22°
2026-05-07 00:54 -28.97872 -51.29294 11054 ft 172 kts 22°
2026-05-07 00:55 -28.96814 -51.28684 11054 ft 172 kts 22°
2026-05-07 00:55 -28.95738 -51.28065 11055 ft 172 kts 22°
2026-05-07 00:55 -28.94668 -51.27447 11055 ft 171 kts 22°
2026-05-07 00:55 -28.93616 -51.26841 11056 ft 171 kts 22°
2026-05-07 00:56 -28.92549 -51.26227 11054 ft 172 kts 22°
2026-05-07 00:56 -28.91472 -51.25607 11059 ft 173 kts 22°
2026-05-07 00:56 -28.90405 -51.24992 11061 ft 173 kts 22°
2026-05-07 00:56 -28.89332 -51.24375 11055 ft 171 kts 22°
2026-05-07 00:57 -28.88279 -51.23769 11063 ft 172 kts 22°
2026-05-07 00:57 -28.87208 -51.23153 11060 ft 172 kts 22°
2026-05-07 00:57 -28.86137 -51.22537 11064 ft 172 kts 22°
2026-05-07 00:57 -28.85072 -51.21925 11063 ft 172 kts 22°
2026-05-07 00:58 -28.84001 -51.21310 11060 ft 172 kts 22°
2026-05-07 00:58 -28.82931 -51.20694 11066 ft 172 kts 22°
2026-05-07 00:58 -28.81857 -51.20077 11068 ft 172 kts 22°
2026-05-07 00:58 -28.80792 -51.19466 11061 ft 173 kts 22°
2026-05-07 00:59 -28.78655 -51.18239 11064 ft 173 kts 22°
2026-05-07 00:59 -28.77575 -51.17619 11067 ft 172 kts 22°
2026-05-07 00:59 -28.76515 -51.17010 11064 ft 172 kts 22°
2026-05-07 01:00 -28.75443 -51.16394 11064 ft 172 kts 22°
2026-05-07 01:00 -28.74367 -51.15778 11068 ft 173 kts 22°
2026-05-07 01:00 -28.73292 -51.15161 11066 ft 173 kts 22°
2026-05-07 01:00 -28.72231 -51.14553 11065 ft 172 kts 22°
2026-05-07 01:01 -28.71151 -51.13934 11070 ft 173 kts 22°
2026-05-07 01:01 -28.70092 -51.13327 11068 ft 172 kts 22°
2026-05-07 01:01 -28.69018 -51.12712 11069 ft 173 kts 22°
2026-05-07 01:01 -28.67941 -51.12095 11069 ft 173 kts 22°
2026-05-07 01:02 -28.66878 -51.11486 11071 ft 173 kts 22°
2026-05-07 01:02 -28.65800 -51.10869 11076 ft 173 kts 22°
2026-05-07 01:02 -28.64717 -51.10249 11078 ft 173 kts 22°
2026-05-07 01:02 -28.63650 -51.09638 11080 ft 173 kts 22°
2026-05-07 01:03 -28.62565 -51.09017 11080 ft 173 kts 22°
2026-05-07 01:03 -28.61488 -51.08401 11079 ft 173 kts 22°
2026-05-07 01:03 -28.60419 -51.07789 11079 ft 173 kts 22°
2026-05-07 01:03 -28.59340 -51.07173 11083 ft 173 kts 22°
2026-05-07 01:04 -28.58260 -51.06555 11082 ft 173 kts 22°
2026-05-07 01:04 -28.57190 -51.05944 11084 ft 173 kts 22°
2026-05-07 01:04 -28.56110 -51.05327 11085 ft 173 kts 22°
2026-05-07 01:04 -28.55030 -51.04710 11084 ft 173 kts 22°
2026-05-07 01:05 -28.53962 -51.04100 11088 ft 173 kts 22°
2026-05-07 01:05 -28.52880 -51.03482 11090 ft 174 kts 22°
2026-05-07 01:05 -28.51801 -51.02865 11085 ft 173 kts 22°
2026-05-07 01:05 -28.50719 -51.02248 11084 ft 173 kts 22°
2026-05-07 01:06 -28.49651 -51.01639 11086 ft 173 kts 22°
2026-05-07 01:06 -28.48568 -51.01021 11086 ft 173 kts 22°
2026-05-07 01:06 -28.47500 -51.00412 11087 ft 173 kts 22°
2026-05-07 01:06 -28.46416 -50.99793 11088 ft 173 kts 22°
2026-05-07 01:07 -28.45352 -50.99188 11094 ft 173 kts 22°
2026-05-07 01:07 -28.44273 -50.98572 11093 ft 173 kts 22°
2026-05-07 01:07 -28.43192 -50.97956 11093 ft 173 kts 22°
2026-05-07 01:07 -28.42126 -50.97349 11093 ft 173 kts 22°
2026-05-07 01:08 -28.41044 -50.96733 11095 ft 173 kts 22°
2026-05-07 01:08 -28.39982 -50.96128 11093 ft 172 kts 22°
2026-05-07 01:08 -28.38905 -50.95515 11094 ft 173 kts 22°
2026-05-07 01:08 -28.37830 -50.94902 11094 ft 172 kts 22°
2026-05-07 01:09 -28.36764 -50.94297 11096 ft 173 kts 23°
2026-05-07 01:09 -28.35685 -50.93683 11096 ft 173 kts 22°
2026-05-07 01:09 -28.34607 -50.93069 11096 ft 172 kts 22°
2026-05-07 01:09 -28.33545 -50.92466 11095 ft 172 kts 23°
2026-05-07 01:10 -28.32466 -50.91852 11094 ft 172 kts 23°
2026-05-07 01:10 -28.31405 -50.91249 11099 ft 173 kts 23°
2026-05-07 01:10 -28.30327 -50.90636 11099 ft 172 kts 22°
2026-05-07 01:10 -28.29261 -50.90031 11098 ft 173 kts 22°
2026-05-07 01:11 -28.28185 -50.89420 11096 ft 173 kts 23°
2026-05-07 01:11 -28.27117 -50.88813 11097 ft 173 kts 23°
2026-05-07 01:11 -28.26040 -50.88202 11096 ft 172 kts 23°
2026-05-07 01:11 -28.24964 -50.87591 11098 ft 172 kts 23°
2026-05-07 01:12 -28.23902 -50.86988 11095 ft 173 kts 23°
2026-05-07 01:12 -28.22820 -50.86374 11098 ft 173 kts 23°
2026-05-07 01:12 -28.21742 -50.85763 11101 ft 173 kts 23°
2026-05-07 01:12 -28.20679 -50.85160 11100 ft 173 kts 23°
2026-05-07 01:13 -28.19601 -50.84548 11098 ft 173 kts 23°
2026-05-07 01:13 -28.18516 -50.83933 11099 ft 173 kts 23°
2026-05-07 01:13 -28.17447 -50.83328 11097 ft 173 kts 23°
2026-05-07 01:13 -28.16367 -50.82715 11098 ft 173 kts 23°
2026-05-07 01:14 -28.15299 -50.82110 11097 ft 173 kts 23°
2026-05-07 01:14 -28.14221 -50.81501 11105 ft 173 kts 23°
2026-05-07 01:14 -28.13140 -50.80888 11107 ft 174 kts 23°
2026-05-07 01:14 -28.12056 -50.80274 11104 ft 173 kts 23°
2026-05-07 01:15 -28.10988 -50.79670 11105 ft 173 kts 23°
2026-05-07 01:15 -28.09908 -50.79059 11106 ft 173 kts 23°
2026-05-07 01:15 -28.08829 -50.78449 11108 ft 173 kts 23°
2026-05-07 01:15 -28.07762 -50.77845 11106 ft 173 kts 23°
2026-05-07 01:16 -28.06684 -50.77236 11104 ft 173 kts 23°
2026-05-07 01:16 -28.05604 -50.76625 11105 ft 173 kts 23°
2026-05-07 01:16 -28.04528 -50.76017 11106 ft 173 kts 23°
2026-05-07 01:16 -28.03459 -50.75413 11107 ft 173 kts 23°
2026-05-07 01:17 -28.02387 -50.74807 11108 ft 173 kts 23°
2026-05-07 01:17 -28.01310 -50.74199 11101 ft 173 kts 23°
2026-05-07 01:17 -28.00237 -50.73593 11105 ft 172 kts 23°
2026-05-07 01:17 -27.99158 -50.72984 11107 ft 172 kts 23°
2026-05-07 01:18 -27.98098 -50.72385 11104 ft 173 kts 23°
2026-05-07 01:18 -27.97017 -50.71776 11107 ft 173 kts 23°
2026-05-07 01:18 -27.95938 -50.71167 11109 ft 173 kts 23°
2026-05-07 01:18 -27.94869 -50.70564 11110 ft 173 kts 24°
2026-05-07 01:19 -27.93793 -50.69957 11108 ft 174 kts 24°
2026-05-07 01:19 -27.92709 -50.69346 11107 ft 173 kts 24°
2026-05-07 01:19 -27.91629 -50.68737 11109 ft 173 kts 23°
2026-05-07 01:19 -27.90561 -50.68136 11106 ft 173 kts 23°
2026-05-07 01:20 -27.89478 -50.67525 11108 ft 173 kts 24°
2026-05-07 01:20 -27.88395 -50.66915 11112 ft 173 kts 23°
2026-05-07 01:20 -27.87326 -50.66313 11109 ft 173 kts 23°
2026-05-07 01:20 -27.86242 -50.65703 11111 ft 174 kts 24°
2026-05-07 01:21 -27.85159 -50.65093 11109 ft 174 kts 24°
2026-05-07 01:21 -27.84075 -50.64483 11111 ft 174 kts 24°
2026-05-07 01:21 -27.82992 -50.63873 11111 ft 174 kts 23°
2026-05-07 01:21 -27.81919 -50.63270 11109 ft 174 kts 23°
2026-05-07 01:22 -27.81197 -50.62864 11110 ft 174 kts 23°
2026-05-07 01:22 -27.79758 -50.62054 11112 ft 174 kts 24°
2026-05-07 01:22 -27.79035 -50.61648 11111 ft 174 kts 23°
2026-05-07 01:22 -27.77946 -50.61036 11112 ft 174 kts 23°
2026-05-07 01:23 -27.76857 -50.60424 11110 ft 174 kts 23°
2026-05-07 01:23 -27.75770 -50.59813 11115 ft 174 kts 23°
2026-05-07 01:23 -27.74683 -50.59203 11114 ft 174 kts 23°
2026-05-07 01:23 -27.73605 -50.58597 11113 ft 174 kts 23°
2026-05-07 01:24 -27.72531 -50.57994 11115 ft 174 kts 23°
2026-05-07 01:24 -27.71439 -50.57382 11115 ft 174 kts 23°
2026-05-07 01:24 -27.70355 -50.56773 11120 ft 174 kts 23°
2026-05-07 01:24 -27.69278 -50.56169 11119 ft 174 kts 23°
2026-05-07 01:25 -27.68188 -50.55557 11119 ft 175 kts 24°
2026-05-07 01:25 -27.67095 -50.54944 11115 ft 174 kts 23°
2026-05-07 01:25 -27.66021 -50.54342 11115 ft 174 kts 23°
2026-05-07 01:25 -27.64932 -50.53732 11117 ft 175 kts 23°
2026-05-07 01:26 -27.63843 -50.53122 11120 ft 174 kts 23°
2026-05-07 01:26 -27.62767 -50.52518 11122 ft 174 kts 24°
2026-05-07 01:26 -27.61673 -50.51906 11125 ft 175 kts 24°
2026-05-07 01:26 -27.60582 -50.51295 11124 ft 175 kts 24°
2026-05-07 01:27 -27.59486 -50.50681 11125 ft 176 kts 24°
2026-05-07 01:27 -27.58403 -50.50074 11123 ft 176 kts 24°
2026-05-07 01:27 -27.57306 -50.49460 11125 ft 175 kts 24°
2026-05-07 01:27 -27.56207 -50.48846 11127 ft 176 kts 24°
2026-05-07 01:28 -27.55120 -50.48238 11126 ft 175 kts 24°
2026-05-07 01:28 -27.54025 -50.47625 11127 ft 175 kts 24°
2026-05-07 01:28 -27.52931 -50.47013 11127 ft 175 kts 24°
2026-05-07 01:28 -27.51837 -50.46401 11125 ft 175 kts 24°
2026-05-07 01:29 -27.50751 -50.45794 11124 ft 175 kts 24°
2026-05-07 01:29 -27.49655 -50.45182 11120 ft 175 kts 24°
2026-05-07 01:29 -27.48569 -50.44576 11122 ft 175 kts 24°
2026-05-07 01:29 -27.47473 -50.43963 11121 ft 175 kts 23°
2026-05-07 01:30 -27.46389 -50.43358 11123 ft 175 kts 24°
2026-05-07 01:30 -27.45298 -50.42748 11121 ft 175 kts 24°
2026-05-07 01:30 -27.44205 -50.42138 11122 ft 175 kts 24°
2026-05-07 01:30 -27.43117 -50.41531 11121 ft 176 kts 24°
2026-05-07 01:31 -27.42019 -50.40918 11122 ft 175 kts 24°
2026-05-07 01:31 -27.40933 -50.40313 11123 ft 176 kts 24°
2026-05-07 01:31 -27.39831 -50.39699 11123 ft 176 kts 24°
2026-05-07 01:31 -27.38734 -50.39086 11124 ft 176 kts 24°
2026-05-07 01:32 -27.37635 -50.38474 11123 ft 176 kts 24°
2026-05-07 01:32 -27.36546 -50.37867 11124 ft 176 kts 24°
2026-05-07 01:32 -27.35446 -50.37253 11125 ft 176 kts 24°
2026-05-07 01:32 -27.34355 -50.36647 11124 ft 176 kts 24°
2026-05-07 01:33 -27.33254 -50.36033 11122 ft 176 kts 24°
2026-05-07 01:33 -27.32148 -50.35417 11122 ft 176 kts 24°
2026-05-07 01:33 -27.31058 -50.34811 11122 ft 176 kts 24°
2026-05-07 01:33 -27.29967 -50.34203 11124 ft 176 kts 24°
2026-05-07 01:34 -27.28866 -50.33591 11123 ft 177 kts 24°
2026-05-07 01:34 -27.27760 -50.32975 11123 ft 176 kts 24°
2026-05-07 01:34 -27.26670 -50.32369 11121 ft 176 kts 24°
2026-05-07 01:34 -27.25569 -50.31756 11119 ft 176 kts 24°
2026-05-07 01:35 -27.24469 -50.31145 11124 ft 176 kts 24°
2026-05-07 01:35 -27.23367 -50.30533 11125 ft 176 kts 24°
2026-05-07 01:35 -27.22268 -50.29922 11123 ft 176 kts 24°
2026-05-07 01:35 -27.21181 -50.29318 11127 ft 176 kts 24°
2026-05-07 01:36 -27.20076 -50.28704 11124 ft 176 kts 24°
2026-05-07 01:36 -27.18974 -50.28092 11119 ft 176 kts 24°
2026-05-07 01:36 -27.17885 -50.27487 11121 ft 176 kts 24°
2026-05-07 01:36 -27.16780 -50.26875 11123 ft 177 kts 24°
2026-05-07 01:37 -27.15670 -50.26258 11122 ft 177 kts 24°
2026-05-07 01:37 -27.14576 -50.25651 11124 ft 177 kts 24°
2026-05-07 01:37 -27.13467 -50.25036 11123 ft 177 kts 24°
2026-05-07 01:37 -27.12374 -50.24429 11121 ft 176 kts 24°
2026-05-07 01:38 -27.11269 -50.23817 11121 ft 177 kts 24°
2026-05-07 01:38 -27.10161 -50.23203 11118 ft 176 kts 24°
2026-05-07 01:38 -27.09072 -50.22599 11117 ft 177 kts 24°
2026-05-07 01:38 -27.07968 -50.21987 11120 ft 176 kts 24°
2026-05-07 01:39 -27.06865 -50.21376 11117 ft 177 kts 24°
2026-05-07 01:39 -27.05774 -50.20771 11118 ft 176 kts 24°
2026-05-07 01:39 -27.04673 -50.20162 11115 ft 176 kts 24°
2026-05-07 01:39 -27.03568 -50.19550 11113 ft 176 kts 24°
2026-05-07 01:40 -27.02472 -50.18944 11121 ft 176 kts 24°
2026-05-07 01:40 -27.01385 -50.18342 11120 ft 176 kts 24°
2026-05-07 01:40 -27.00281 -50.17731 11120 ft 176 kts 24°
2026-05-07 01:40 -26.99188 -50.17127 11122 ft 176 kts 24°
2026-05-07 01:41 -26.98087 -50.16518 11120 ft 176 kts 24°
2026-05-07 01:41 -26.96982 -50.15907 11117 ft 176 kts 24°
2026-05-07 01:41 -26.95889 -50.15302 11118 ft 176 kts 24°
2026-05-07 01:41 -26.94803 -50.14702 11116 ft 176 kts 24°
2026-05-07 01:42 -26.93703 -50.14094 11116 ft 176 kts 24°
2026-05-07 01:42 -26.92602 -50.13487 11117 ft 176 kts 24°
2026-05-07 01:42 -26.91515 -50.12886 11117 ft 176 kts 24°
2026-05-07 01:42 -26.90420 -50.12281 11115 ft 176 kts 24°
2026-05-07 01:43 -26.89320 -50.11673 11114 ft 176 kts 24°
2026-05-07 01:43 -26.88218 -50.11065 11114 ft 176 kts 24°
2026-05-07 01:43 -26.87135 -50.10468 11114 ft 175 kts 24°
2026-05-07 01:43 -26.86038 -50.09863 11113 ft 175 kts 24°
2026-05-07 01:44 -26.84944 -50.09259 11114 ft 175 kts 24°
2026-05-07 01:44 -26.83847 -50.08654 11117 ft 176 kts 24°
2026-05-07 01:44 -26.82744 -50.08046 11115 ft 176 kts 24°
2026-05-07 01:44 -26.81646 -50.07441 11116 ft 176 kts 24°
2026-05-07 01:45 -26.80563 -50.06844 11112 ft 175 kts 24°
2026-05-07 01:45 -26.79465 -50.06239 11113 ft 175 kts 24°
2026-05-07 01:45 -26.78381 -50.05642 11112 ft 176 kts 24°
2026-05-07 01:45 -26.77283 -50.05037 11113 ft 176 kts 24°
2026-05-07 01:46 -26.76181 -50.04431 11114 ft 176 kts 24°
2026-05-07 01:46 -26.75090 -50.03830 11111 ft 176 kts 24°
2026-05-07 01:46 -26.73987 -50.03223 11114 ft 176 kts 24°
2026-05-07 01:46 -26.72883 -50.02615 11111 ft 175 kts 24°
2026-05-07 01:47 -26.71788 -50.02013 11112 ft 176 kts 24°
2026-05-07 01:47 -26.70705 -50.01417 11112 ft 175 kts 24°
2026-05-07 01:47 -26.69604 -50.00811 11114 ft 176 kts 24°
2026-05-07 01:47 -26.68506 -50.00208 11111 ft 175 kts 24°
2026-05-07 01:48 -26.67419 -49.99610 11113 ft 176 kts 24°
2026-05-07 01:48 -26.66316 -49.99004 11112 ft 175 kts 24°
2026-05-07 01:48 -26.65229 -49.98407 11115 ft 175 kts 24°
2026-05-07 01:48 -26.64141 -49.97809 11113 ft 175 kts 24°
2026-05-07 01:49 -26.63037 -49.97203 11117 ft 176 kts 24°
2026-05-07 01:49 -26.61947 -49.96604 11115 ft 176 kts 24°
2026-05-07 01:49 -26.60844 -49.95999 11114 ft 176 kts 24°
2026-05-07 01:49 -26.59756 -49.95401 11118 ft 176 kts 24°
2026-05-07 01:50 -26.58657 -49.94798 11118 ft 176 kts 24°
2026-05-07 01:50 -26.57553 -49.94193 11122 ft 176 kts 24°
2026-05-07 01:50 -26.56462 -49.93594 11123 ft 177 kts 24°
2026-05-07 01:50 -26.55356 -49.92988 11119 ft 177 kts 24°
2026-05-07 01:51 -26.54253 -49.92383 11121 ft 176 kts 24°
2026-05-07 01:51 -26.53160 -49.91783 11121 ft 176 kts 24°
2026-05-07 01:51 -26.52054 -49.91177 11122 ft 176 kts 24°
2026-05-07 01:51 -26.50961 -49.90579 11118 ft 176 kts 24°
2026-05-07 01:52 -26.49858 -49.89975 11119 ft 176 kts 24°
2026-05-07 01:52 -26.48755 -49.89370 11120 ft 176 kts 24°
2026-05-07 01:52 -26.47651 -49.88766 11121 ft 176 kts 24°
2026-05-07 01:52 -26.46548 -49.88162 11122 ft 176 kts 24°
2026-05-07 01:53 -26.45460 -49.87566 11120 ft 176 kts 24°
2026-05-07 01:53 -26.44357 -49.86963 11123 ft 176 kts 24°
2026-05-07 01:53 -26.43253 -49.86359 11122 ft 176 kts 23°
2026-05-07 01:53 -26.42164 -49.85763 11123 ft 176 kts 24°
2026-05-07 01:54 -26.41061 -49.85160 11124 ft 176 kts 24°
2026-05-07 01:54 -26.39973 -49.84565 11123 ft 176 kts 24°
2026-05-07 01:54 -26.38859 -49.83957 11124 ft 176 kts 23°
2026-05-07 01:54 -26.37772 -49.83363 11125 ft 176 kts 23°
2026-05-07 01:55 -26.36675 -49.82762 11124 ft 176 kts 23°
2026-05-07 01:55 -26.35585 -49.82167 11127 ft 176 kts 23°
2026-05-07 01:55 -26.34481 -49.81564 11127 ft 176 kts 23°
2026-05-07 01:55 -26.33357 -49.81025 11123 ft 174 kts 17°
2026-05-07 01:56 -26.32226 -49.80586 11127 ft 174 kts 17°
2026-05-07 01:56 -26.31082 -49.80127 11128 ft 174 kts 17°
2026-05-07 01:56 -26.29935 -49.79668 11130 ft 175 kts 17°
2026-05-07 01:56 -26.28800 -49.79214 11131 ft 175 kts 17°
2026-05-07 01:57 -26.27662 -49.78761 11131 ft 175 kts 17°
2026-05-07 01:57 -26.26515 -49.78302 11131 ft 175 kts 17°
2026-05-07 01:57 -26.25370 -49.77846 11128 ft 174 kts 17°
2026-05-07 01:57 -26.24222 -49.77388 11127 ft 174 kts 17°
2026-05-07 01:58 -26.23092 -49.76938 11130 ft 174 kts 17°
2026-05-07 01:58 -26.21942 -49.76479 11130 ft 174 kts 17°
2026-05-07 01:58 -26.20813 -49.76029 11128 ft 174 kts 17°
2026-05-07 01:58 -26.19671 -49.75574 11129 ft 174 kts 17°
2026-05-07 01:59 -26.18529 -49.75119 11129 ft 174 kts 17°
2026-05-07 01:59 -26.17388 -49.74664 11130 ft 174 kts 17°
2026-05-07 01:59 -26.16257 -49.74215 11128 ft 174 kts 17°
2026-05-07 01:59 -26.15115 -49.73760 11128 ft 173 kts 17°
2026-05-07 02:00 -26.13975 -49.73306 11130 ft 174 kts 17°
2026-05-07 02:00 -26.12836 -49.72853 11132 ft 174 kts 17°
2026-05-07 02:00 -26.11708 -49.72404 11129 ft 174 kts 17°
2026-05-07 02:00 -26.10564 -49.71949 11131 ft 174 kts 17°
2026-05-07 02:01 -26.09423 -49.71495 11126 ft 174 kts 17°
2026-05-07 02:01 -26.08295 -49.71046 11132 ft 173 kts 17°
2026-05-07 02:01 -26.07149 -49.70591 11131 ft 174 kts 17°
2026-05-07 02:01 -26.06023 -49.70143 11131 ft 174 kts 17°
2026-05-07 02:02 -26.04881 -49.69689 11133 ft 173 kts 17°
2026-05-07 02:02 -26.03746 -49.69238 11136 ft 173 kts 17°
2026-05-07 02:02 -26.02604 -49.68785 11141 ft 174 kts 17°
2026-05-07 02:02 -26.01468 -49.68333 11138 ft 174 kts 17°
2026-05-07 02:03 -26.00340 -49.67885 11138 ft 174 kts 17°
2026-05-07 02:03 -25.99197 -49.67431 11139 ft 174 kts 17°
2026-05-07 02:03 -25.98049 -49.66976 11139 ft 174 kts 17°
2026-05-07 02:03 -25.96922 -49.66528 11138 ft 174 kts 17°
2026-05-07 02:04 -25.95779 -49.66075 11138 ft 174 kts 17°
2026-05-07 02:04 -25.94633 -49.65620 11142 ft 174 kts 17°
2026-05-07 02:04 -25.93500 -49.65171 11141 ft 174 kts 17°
2026-05-07 02:04 -25.92359 -49.64718 11141 ft 174 kts 17°
2026-05-07 02:05 -25.91227 -49.64270 11141 ft 174 kts 17°
2026-05-07 02:05 -25.90081 -49.63815 11143 ft 174 kts 17°
2026-05-07 02:05 -25.88942 -49.63364 11143 ft 174 kts 17°
2026-05-07 02:05 -25.87796 -49.62910 11147 ft 174 kts 17°
2026-05-07 02:06 -25.86666 -49.62462 11142 ft 174 kts 17°
2026-05-07 02:06 -25.85523 -49.62010 11141 ft 174 kts 17°
2026-05-07 02:06 -25.84379 -49.61557 11141 ft 174 kts 17°
2026-05-07 02:06 -25.83234 -49.61104 11142 ft 174 kts 17°
2026-05-07 02:07 -25.82104 -49.60656 11139 ft 174 kts 17°
2026-05-07 02:07 -25.79827 -49.59755 11144 ft 174 kts 17°
2026-05-07 02:07 -25.78680 -49.59302 11142 ft 174 kts 17°
2026-05-07 02:08 -25.77538 -49.58850 11143 ft 174 kts 17°
2026-05-07 02:08 -25.76413 -49.58406 11140 ft 173 kts 17°
2026-05-07 02:08 -25.75275 -49.57955 11143 ft 174 kts 17°
2026-05-07 02:08 -25.74133 -49.57504 11143 ft 174 kts 17°
2026-05-07 02:09 -25.73004 -49.57059 11141 ft 174 kts 17°
2026-05-07 02:09 -25.72622 -49.56908 11144 ft 174 kts 17°
2026-05-07 02:09 -25.71658 -49.56527 11141 ft 174 kts 17°
2026-05-07 02:10 -25.70551 -49.56089 11144 ft 174 kts 17°
2026-05-07 02:10 -25.69409 -49.55638 11144 ft 174 kts 17°
2026-05-07 02:10 -25.68268 -49.55188 11145 ft 174 kts 17°
2026-05-07 02:10 -25.67127 -49.54738 11143 ft 174 kts 17°
2026-05-07 02:11 -25.65993 -49.54290 11143 ft 174 kts 17°
2026-05-07 02:11 -25.64848 -49.53839 11144 ft 174 kts 17°
2026-05-07 02:11 -25.63709 -49.53390 11143 ft 174 kts 17°
2026-05-07 02:11 -25.62583 -49.52945 11147 ft 174 kts 17°
2026-05-07 02:12 -25.61443 -49.52496 11149 ft 174 kts 18°
2026-05-07 02:12 -25.60299 -49.52045 11151 ft 174 kts 18°
2026-05-07 02:12 -25.59185 -49.51553 11144 ft 174 kts 27°
2026-05-07 02:12 -25.58275 -49.50660 11158 ft 176 kts 42°
2026-05-07 02:13 -25.57400 -49.49706 11165 ft 176 kts 41°
2026-05-07 02:13 -25.56519 -49.48755 11167 ft 177 kts 41°
2026-05-07 02:13 -25.55649 -49.47812 11174 ft 177 kts 41°
2026-05-07 02:13 -25.54767 -49.46857 11176 ft 177 kts 41°
2026-05-07 02:14 -25.53881 -49.45898 11185 ft 177 kts 41°
2026-05-07 02:14 -25.53009 -49.44954 11182 ft 177 kts 41°
2026-05-07 02:14 -25.52128 -49.44000 11191 ft 177 kts 41°
2026-05-07 02:14 -25.51245 -49.43045 11190 ft 177 kts 41°
2026-05-07 02:15 -25.50363 -49.42091 11193 ft 177 kts 41°
2026-05-07 02:15 -25.49494 -49.41150 11204 ft 177 kts 41°
2026-05-07 02:15 -25.48616 -49.40187 11200 ft 177 kts 44°
2026-05-07 02:15 -25.48042 -49.38990 11198 ft 182 kts 70°
2026-05-07 02:16 -25.47988 -49.37579 11201 ft 187 kts 96°
2026-05-07 02:16 -25.48297 -49.36179 11208 ft 187 kts 101°
2026-05-07 02:16 -25.48611 -49.34775 11216 ft 188 kts 100°
2026-05-07 02:16 -25.48920 -49.33368 11216 ft 188 kts 100°
2026-05-07 02:17 -25.49222 -49.31981 11219 ft 188 kts 100°
2026-05-07 02:17 -25.49532 -49.30569 11224 ft 188 kts 100°
2026-05-07 02:17 -25.49842 -49.29151 11223 ft 188 kts 100°
2026-05-07 02:17 -25.50148 -49.27753 11200 ft 188 kts 100°
2026-05-07 02:18 -25.50457 -49.26342 11201 ft 188 kts 100°
2026-05-07 02:18 -25.50766 -49.24928 11205 ft 188 kts 100°
2026-05-07 02:18 -25.51070 -49.23534 11203 ft 188 kts 100°
2026-05-07 02:18 -25.51380 -49.22118 11201 ft 188 kts 101°
2026-05-07 02:19 -25.51688 -49.20706 11204 ft 188 kts 100°
2026-05-07 02:19 -25.51996 -49.19298 11201 ft 188 kts 101°
2026-05-07 02:19 -25.52299 -49.17905 11202 ft 188 kts 100°
2026-05-07 02:19 -25.52607 -49.16495 11199 ft 188 kts 101°
2026-05-07 02:20 -25.52914 -49.15086 11201 ft 188 kts 100°
2026-05-07 02:20 -25.53217 -49.13694 11205 ft 188 kts 101°
2026-05-07 02:20 -25.53525 -49.12282 11202 ft 188 kts 100°
2026-05-07 02:20 -25.53831 -49.10873 11201 ft 188 kts 101°
2026-05-07 02:21 -25.54133 -49.09482 11200 ft 188 kts 101°
2026-05-07 02:21 -25.54440 -49.08073 11201 ft 188 kts 100°
2026-05-07 02:21 -25.54747 -49.06661 11200 ft 188 kts 101°
2026-05-07 02:21 -25.55049 -49.05266 11196 ft 188 kts 101°
2026-05-07 02:22 -25.55356 -49.03853 11193 ft 188 kts 101°
2026-05-07 02:22 -25.55658 -49.02461 11189 ft 188 kts 101°
2026-05-07 02:22 -25.55964 -49.01048 11187 ft 188 kts 101°
2026-05-07 02:22 -25.56270 -48.99638 11184 ft 188 kts 101°
2026-05-07 02:23 -25.56571 -48.98249 11178 ft 188 kts 101°
2026-05-07 02:23 -25.56877 -48.96835 11174 ft 188 kts 101°
2026-05-07 02:23 -25.57183 -48.95422 11170 ft 188 kts 101°
2026-05-07 02:23 -25.57484 -48.94028 11167 ft 188 kts 101°
2026-05-07 02:24 -25.57790 -48.92613 11160 ft 188 kts 101°
2026-05-07 02:24 -25.58096 -48.91201 11157 ft 188 kts 101°
2026-05-07 02:24 -25.58400 -48.89792 11152 ft 188 kts 101°
2026-05-07 02:24 -25.58702 -48.88391 11147 ft 189 kts 101°
2026-05-07 02:25 -25.59009 -48.86967 11141 ft 189 kts 101°
2026-05-07 02:25 -25.59315 -48.85547 11134 ft 189 kts 101°
2026-05-07 02:25 -25.59616 -48.84151 11132 ft 189 kts 101°
2026-05-07 02:25 -25.59922 -48.82733 11127 ft 189 kts 101°
2026-05-07 02:26 -25.60227 -48.81315 11122 ft 189 kts 100°
2026-05-07 02:26 -25.60528 -48.79917 11116 ft 188 kts 101°